STARLINK-30503, 57975

Orbit data source: Space-Track

STARLINK-30503, 57975 is a payload satellite owned by SpaceX/Seattle (US) in LEO that was launched on Sat, 30 Sep 2023 UTC via an FALCON 9 launch vehicle from the Air Force Eastern Test Range (AFETR). Payload-class satellites include a variety of spacecraft equipped with specific instruments for various scientific and technological missions. These include communications satellites like Starlink; space stations such as the ISS; scientific satellites like the Hubble; Earth observation satellites from companies like Planet Labs, Umbra, and HawkEye 360; GPS; miniature CubeSats for education and research; and military/defense satellites.

Loading next visibility...
Identifier
57975, 2023-151M
Orbit
LEO
Country
Flag of USUS
Related business
Manufacturer
SpaceX/Seattle
Mission
Operational Commercial Communications
Bus & Motor
STARLINK V2M, Unknown motor
Mass
730 kg wet, ~700 kg dry
Launch date (UTC)
2023-09-30 (3 years ago)
Launch vehicle
FALCON 9
Launch site
Air Force Eastern Test Range (AFETR)
Object type
Payload
Rocket body
Debris
Shape & HBR
Box + 2 Pan, 17.7 m
Radar Cross Section
33.884 m², Large (>1 m²)

Expand to show TLE details & history
Last TLE update: 11 hours ago

TLE from 11 hours ago
0 STARLINK-30503
1 57975U 23151M   26130.03097874  .00000602  00000-0  31416-4 0  9992
2 57975  43.0059 349.8980 0001373 258.6064 101.4634 15.27566460145148
Epoch: 2026-05-10T00:44Z
TLE epoch observation values (Epoch: 2026-05-10T00:44:36.563Z)
Latitude
0.00003°
Longitude
110.90578°
Altitude
483.053 km
Speed
7.626 km/s
True Right ascension
23h 19m 35s
True Declination
0° 00' 00"
Sunlit
Object was in daylight at epoch
Visualization orbit readout
Latitude
Unknown
Longitude
Unknown
Altitude
Unknown
Speed
Unknown
Apparent Right ascension
Unknown
Apparent Declination
Unknown
Sunlit
N/A
Visualization observer readout
Local Sidereal Time
19:51:39
Azimuth
Unknown
Elevation
Unknown
Doppler factor
Unknown
Orbital elements
Apogee altitude
485.976 km
Perigee altitude
484.091 km
Semi-major axis
6,863.171 km
Eccentricity
0.00014
Inclination
43.0059°
RAAN
349.898°
Arg. of periapsis
258.6064°
True anomaly
101.47882°
Mean anomaly
101.4634°
Eccentric anomaly
101.47111°
Mean motion
3.8173 °/min
Orbital period
94.31 mins
BSTAR
0.000031416
Loading maneuver chart data...
Computing Atmospheric mass density...
Loading historical data...
Loading historical data...
Loading historical data...
Loading historical data...
Loading historical data...
Loading historical data...
Loading historical data...

Documentation

Showing up to 5 results
|